Hourly Data Report for September 12, 2017

All times are specified in Local Standard Time (LST). Add 1 hour to adjust for Daylight Saving Time where and when it is observed.

CORAL HARBOUR A
NUNAVUT

64°11'36.000" N
83°21'34.000" W
62.20 m
2301002
71915
YZS

Download Data

Hourly Data (September 2017)
Hourly Data Report for September 12, 2017
Temp Definition
°C
Dew Point Temp Definition
°C
Rel Hum Definition
%
Wind Dir Definition
10's deg

Wind Spd Definition
km/h
Visibility Definition
km
Stn Press Definition
kPa
Hmdx Definition


Wind Chill Definition


Weather Definition


TIME
00:00 Legend Double Dagger 1.7 0.1 89 5 64 9.7 98.47     Rain
01:00 Legend Double Dagger 1.7 0.0 89 5 53 16.1 98.49     Rain
02:00 Legend Double Dagger 1.7 -0.1 88 5 54 16.1 98.45     Rain
03:00 Legend Double Dagger 1.8 -0.2 87 5 50 12.9 98.51     Rain
04:00 Legend Double Dagger 1.8 -0.2 87 4 50 12.9 98.53     Rain
05:00 Legend Double Dagger 1.9 -0.2 86 4 50 12.9 98.62     Rain
06:00 Legend Double Dagger 1.7 -0.3 86 3 49 19.3 98.62     Rain
07:00 Legend Double Dagger 1.5 -0.6 86 3 46 24.1 98.68     Rain,Snow
08:00 Legend Double Dagger 1.5 -0.6 86 3 48 19.3 98.64     Snow
09:00 Legend Double Dagger 1.6 -0.5 86 3 55 24.1 98.69     Snow
10:00 Legend Double Dagger 1.7 -0.6 85 3 62 24.1 98.67     Snow
11:00 Legend Double Dagger 1.8 -0.4 86 3 53 24.1 98.79     Snow
12:00 Legend Double Dagger 1.7 -0.2 87 3 57 12.9 98.82     Snow
13:00 Legend Double Dagger 1.3 -0.1 91 2 54 9.7 98.89     Snow
14:00 Legend Double Dagger 1.6 0.1 90 3 55 19.3 98.94     Snow
15:00 Legend Double Dagger 2.0 0.1 87 3 59 24.1 99.03     Rain
16:00 Legend Double Dagger 2.0 -0.1 86 2 56 24.1 99.09     Cloudy
17:00 Legend Double Dagger 1.7 -0.2 87 2 59 24.1 99.13     LegendNANA
18:00 Legend Double Dagger 1.7 -0.2 87 3 61 24.1 99.15     LegendNANA
19:00 Legend Double Dagger 1.6 -0.1 88 3 64 24.1 99.20     Mostly Cloudy
20:00 Legend Double Dagger 1.5 -0.4 87 3 60 24.1 99.29     LegendNANA
21:00 Legend Double Dagger 1.5 -0.2 88 3 63 24.1 99.33     LegendNANA
22:00 Legend Double Dagger 1.5 -0.6 86 3 50 24.1 99.33     Mainly Clear
23:00 Legend Double Dagger 1.4 -0.6 86 3 41 24.1 99.46     LegendNANA

Notes on Data Quality.

Legend

  • E = Estimated
  • M = Missing
  • NA = Not Available
  • ‡ = Partner data that is not subject to review by the National Climate Archives
Date modified: